Location: Unspecified
(51.0000°N, 12.0000°E)
Time: 22:36:33
(UTC+01:00)

N. Korean satellite - Pass Details

Date: 24 October 2019
Orbit: 456 x 506 km, 97.2° (Epoch: 22 November)

Event Time Altitude Azimuth Distance (km) Brightness Sun altitude
Rises 18:51:19 0° 192° (SSW) 2,471 10.4 -8.4°
Reaches altitude 10° 18:53:32 10° 205° (SSW) 1,607 9.7 -8.7°
Maximum altitude 18:56:31 27° 265° (W) 931 9.0 -9.2°
Drops below altitude 10° 18:59:34 10° 325° (NW) 1,638 9.6 -9.7°
Sets 19:01:52 0° 338° (NNW) 2,529 10.4 -10.0°
